| time (UTC) | temp F | wind direction | speed MPH | gust MPH | rain 1hr in | rain 24hr in | rain mn in | humidity % | barometer mb |
| 20260510152336 | 54 | 213 | 2.0 | 7.0 | 0.00 | 0.00 | 0.00 | 47 | 1019.2 |
| 20260510151834 | 53 | 259 | 2.0 | 4.0 | 0.00 | 0.00 | 0.00 | 48 | 1019.2 |
| 20260510151331 | 53 | 230 | 2.0 | 5.0 | 0.00 | 0.00 | 0.00 | 48 | 1019.3 |
| 20260510150832 | 53 | 298 | 2.0 | 7.0 | 0.00 | 0.00 | 0.00 | 50 | 1019.2 |
| 20260510150332 | 52 | 26 | 3.0 | 9.0 | 0.00 | 0.00 | 0.00 | 49 | 1019.1 |
| 20260510145831 | 52 | 292 | 2.0 | 9.0 | 0.00 | 0.00 | 0.00 | 51 | 1019.2 |
| 20260510145325 | 52 | 272 | 2.0 | 6.0 | 0.00 | 0.00 | 0.00 | 52 | 1019.2 |
| 20260510144825 | 51 | 239 | 2.0 | 5.0 | 0.00 | 0.00 | 0.00 | 52 | 1019.3 |
| 20260510144326 | 51 | 250 | 1.0 | 4.0 | 0.00 | 0.00 | 0.00 | 52 | 1019.3 |
| 20260510143825 | 51 | 286 | 1.0 | 4.0 | 0.00 | 0.00 | 0.00 | 55 | 1019.2 |
| 20260510143325 | 51 | 25 | 1.0 | 4.0 | 0.00 | 0.00 | 0.00 | 54 | 1019.2 |
| 20260510142825 | 51 | 15 | 1.0 | 4.0 | 0.00 | 0.00 | 0.00 | 55 | 1019.1 |
| 20260510142325 | 51 | 294 | 2.0 | 5.0 | 0.00 | 0.00 | 0.00 | 57 | 1019.2 |
| 20260510141826 | 50 | 309 | 2.0 | 5.0 | 0.00 | 0.00 | 0.00 | 57 | 1019.2 |
| 20260510141553 | 50 | 355 | 2.0 | 4.0 | 0.00 | 0.00 | 0.00 | 56 | 1019.1 |
| 20260510140825 | 49 | 0 | 2.0 | 4.0 | 0.00 | 0.00 | 0.00 | 57 | 1019.2 |
| 20260510140322 | 49 | 302 | 2.0 | 7.0 | 0.00 | 0.00 | 0.00 | 58 | 1019.2 |
| 20260510135821 | 48 | 315 | 2.0 | 7.0 | 0.00 | 0.00 | 0.00 | 60 | 1019.1 |
| 20260510135321 | 47 | 288 | 1.0 | 5.0 | 0.00 | 0.00 | 0.00 | 61 | 1019.1 |
| 20260510134821 | 46 | 111 | 1.0 | 3.0 | 0.00 | 0.00 | 0.00 | 66 | 1019.2 |
| 20260510134540 | 46 | 239 | 1.0 | 3.0 | 0.00 | 0.00 | 0.00 | 68 | 1019.0 |
| 20260510133821 | 46 | 256 | 1.0 | 3.0 | 0.00 | 0.00 | 0.00 | 69 | 1019.1 |
| 20260510133759 | 45 | 265 | 2.0 | 3.0 | 0.00 | 0.00 | 0.00 | 69 | 1018.9 |
| 20260510132821 | 45 | 265 | 1.0 | 3.0 | 0.00 | 0.00 | 0.00 | 70 | 1018.8 |
| 20260510132546 | 45 | 288 | 1.0 | 2.0 | 0.00 | 0.00 | 0.00 | 70 | 1018.9 |
| 20260510131817 | 44 | 288 | 1.0 | 3.0 | 0.00 | 0.00 | 0.00 | 71 | 1018.6 |
| 20260510131318 | 44 | 289 | 1.0 | 3.0 | 0.00 | 0.00 | 0.00 | 70 | 1018.7 |
| 20260510130817 | 44 | 289 | 1.0 | 2.0 | 0.00 | 0.00 | 0.00 | 70 | 1018.7 |
| 20260510130536 | 43 | 288 | 1.0 | 2.0 | 0.00 | 0.00 | 0.00 | 71 | 1018.6 |
| 20260510125817 | 42 | 288 | 1.0 | 2.0 | 0.00 | 0.00 | 0.00 | 72 | 1018.6 |
| 20260510125318 | 42 | 289 | 1.0 | 2.0 | 0.00 | 0.00 | 0.00 | 72 | 1018.5 |
| 20260510124817 | 41 | 289 | 1.0 | 3.0 | 0.00 | 0.00 | 0.00 | 73 | 1018.6 |
| 20260510124317 | 41 | 289 | 1.0 | 3.0 | 0.00 | 0.00 | 0.00 | 75 | 1018.5 |
| 20260510124040 | 40 | 290 | 1.0 | 2.0 | 0.00 | 0.00 | 0.00 | 75 | 1018.5 |
| 20260510123317 | 39 | 289 | 0.0 | 2.0 | 0.00 | 0.00 | 0.00 | 77 | 1018.3 |
| 20260510122816 | 39 | 290 | 0.0 | 2.0 | 0.00 | 0.00 | 0.00 | 80 | 1018.4 |
| 20260510122313 | 39 | 290 | 1.0 | 3.0 | 0.00 | 0.00 | 0.00 | 80 | 1018.4 |
| 20260510121810 | 38 | 290 | 1.0 | 3.0 | 0.00 | 0.00 | 0.00 | 81 | 1018.4 |
| 20260510121305 | 38 | 290 | 0.0 | 3.0 | 0.00 | 0.00 | 0.00 | 81 | 1018.3 |
| 20260510120758 | 37 | 293 | 0.0 | 1.0 | 0.00 | 0.00 | 0.00 | 80 | 1018.3 |
| 20260510120253 | 37 | 293 | 0.0 | 3.0 | 0.00 | 0.00 | 0.00 | 81 | 1018.2 |
| 20260510115746 | 37 | 293 | 0.0 | 3.0 | 0.00 | 0.00 | 0.00 | 82 | 1018.1 |
| 20260510115240 | 37 | 293 | 0.0 | 0.0 | 0.00 | 0.00 | 0.00 | 83 | 1018.1 |
| 20260510114735 | 36 | 293 | 0.0 | 0.0 | 0.00 | 0.00 | 0.00 | 84 | 1018.1 |
| 20260510114230 | 36 | 293 | 0.0 | 0.0 | 0.00 | 0.00 | 0.00 | 83 | 1018.0 |
| 20260510113723 | 36 | 293 | 0.0 | 0.0 | 0.00 | 0.00 | 0.00 | 82 | 1018.0 |
| 20260510113216 | 35 | 293 | 0.0 | 0.0 | 0.00 | 0.00 | 0.00 | 82 | 1017.8 |
| 20260510112927 | 35 | 293 | 0.0 | 0.0 | 0.00 | 0.00 | 0.00 | 81 | 1017.8 |
| 20260510112205 | 35 | 293 | 0.0 | 0.0 | 0.00 | 0.00 | 0.00 | 80 | 1017.8 |
| 20260510111658 | 35 | 293 | 0.0 | 0.0 | 0.00 | 0.00 | 0.00 | 80 | 1017.8 |
| 20260510111153 | 35 | 293 | 0.0 | 0.0 | 0.00 | 0.00 | 0.00 | 80 | 1017.8 |
| 20260510110646 | 35 | 293 | 0.0 | 0.0 | 0.00 | 0.00 | 0.00 | 78 | 1017.6 |
| 20260510110141 | 35 | 293 | 0.0 | 0.0 | 0.00 | 0.00 | 0.00 | 75 | 1017.5 |
| 20260510105634 | 35 | 293 | 0.0 | 0.0 | 0.00 | 0.00 | 0.00 | 75 | 1017.4 |
| 20260510105129 | 35 | 293 | 0.0 | 0.0 | 0.00 | 0.00 | 0.00 | 75 | 1017.3 |
| 20260510104622 | 36 | 293 | 0.0 | 0.0 | 0.00 | 0.00 | 0.00 | 75 | 1017.4 |
| 20260510104117 | 36 | 293 | 0.0 | 0.0 | 0.00 | 0.00 | 0.00 | 75 | 1017.5 |
| 20260510103610 | 36 | 293 | 0.0 | 0.0 | 0.00 | 0.00 | 0.00 | 74 | 1017.4 |
| 20260510103326 | 36 | 293 | 0.0 | 0.0 | 0.00 | 0.00 | 0.00 | 74 | 1017.4 |
| 20260510102559 | 36 | 293 | 0.0 | 0.0 | 0.00 | 0.00 | 0.00 | 74 | 1017.1 |
| 20260510102053 | 37 | 293 | 0.0 | 0.0 | 0.00 | 0.00 | 0.00 | 73 | 1017.1 |
| 20260510101547 | 37 | 293 | 0.0 | 0.0 | 0.00 | 0.00 | 0.00 | 72 | 1017.0 |
| 20260510101040 | 37 | 293 | 0.0 | 0.0 | 0.00 | 0.00 | 0.00 | 72 | 1016.9 |
| 20260510100535 | 37 | 293 | 0.0 | 0.0 | 0.00 | 0.00 | 0.00 | 72 | 1016.8 |
| 20260510100028 | 38 | 293 | 0.0 | 0.0 | 0.00 | 0.00 | 0.00 | 71 | 1016.7 |
| 20260510095743 | 38 | 293 | 0.0 | 0.0 | 0.00 | 0.00 | 0.00 | 71 | 1016.7 |
| 20260510095016 | 38 | 293 | 0.0 | 0.0 | 0.00 | 0.00 | 0.00 | 71 | 1016.5 |
| 20260510094511 | 38 | 293 | 0.0 | 0.0 | 0.00 | 0.00 | 0.00 | 70 | 1016.5 |
| 20260510094004 | 38 | 293 | 0.0 | 0.0 | 0.00 | 0.00 | 0.00 | 70 | 1016.5 |
| 20260510093500 | 39 | 293 | 0.0 | 0.0 | 0.00 | 0.00 | 0.00 | 70 | 1016.4 |
| 20260510092952 | 39 | 293 | 0.0 | 0.0 | 0.00 | 0.00 | 0.00 | 70 | 1016.4 |
| 20260510092447 | 39 | 293 | 0.0 | 0.0 | 0.00 | 0.00 | 0.00 | 72 | 1016.5 |
| 20260510091941 | 39 | 293 | 0.0 | 0.0 | 0.00 | 0.00 | 0.00 | 70 | 1016.3 |
| 20260510091434 | 39 | 293 | 0.0 | 0.0 | 0.00 | 0.00 | 0.00 | 69 | 1016.3 |
| 20260510090928 | 40 | 293 | 0.0 | 0.0 | 0.00 | 0.00 | 0.00 | 69 | 1016.3 |
| 20260510090422 | 40 | 293 | 0.0 | 0.0 | 0.00 | 0.00 | 0.00 | 69 | 1016.3 |
| 20260510085916 | 40 | 293 | 0.0 | 0.0 | 0.00 | 0.00 | 0.00 | 70 | 1016.3 |
| 20260510085411 | 40 | 293 | 0.0 | 0.0 | 0.00 | 0.00 | 0.00 | 68 | 1016.1 |
| 20260510084905 | 40 | 293 | 0.0 | 1.0 | 0.00 | 0.00 | 0.00 | 67 | 1016.1 |
| 20260510084618 | 40 | 293 | 0.0 | 1.0 | 0.00 | 0.00 | 0.00 | 66 | 1016.1 |
| 20260510083852 | 40 | 293 | 0.0 | 0.0 | 0.00 | 0.00 | 0.00 | 66 | 1016.0 |
| 20260510083346 | 41 | 293 | 0.0 | 0.0 | 0.00 | 0.00 | 0.00 | 66 | 1015.9 |
| 20260510082840 | 41 | 293 | 0.0 | 0.0 | 0.00 | 0.00 | 0.00 | 66 | 1015.9 |
| 20260510082555 | 41 | 293 | 0.0 | 0.0 | 0.00 | 0.00 | 0.00 | 66 | 1015.7 |
| 20260510081828 | 41 | 293 | 0.0 | 0.0 | 0.00 | 0.00 | 0.00 | 64 | 1015.7 |
| 20260510081322 | 41 | 293 | 0.0 | 0.0 | 0.00 | 0.00 | 0.00 | 64 | 1015.6 |
| 20260510080817 | 42 | 293 | 0.0 | 0.0 | 0.00 | 0.00 | 0.00 | 65 | 1015.6 |
| 20260510080310 | 42 | 293 | 0.0 | 0.0 | 0.00 | 0.00 | 0.00 | 62 | 1015.5 |
| 20260510075805 | 42 | 293 | 0.0 | 0.0 | 0.00 | 0.00 | 0.00 | 62 | 1015.5 |
| 20260510075259 | 42 | 293 | 0.0 | 0.0 | 0.00 | 0.00 | 0.00 | 64 | 1015.5 |
| 20260510074752 | 42 | 293 | 0.0 | 0.0 | 0.00 | 0.00 | 0.00 | 63 | 1015.4 |
| 20260510074247 | 42 | 293 | 0.0 | 0.0 | 0.00 | 0.00 | 0.00 | 61 | 1015.4 |
| 20260510073741 | 43 | 293 | 0.0 | 0.0 | 0.00 | 0.00 | 0.00 | 60 | 1015.4 |
| 20260510073234 | 43 | 293 | 0.0 | 0.0 | 0.00 | 0.00 | 0.00 | 57 | 1015.3 |
| 20260510072947 | 43 | 293 | 0.0 | 0.0 | 0.00 | 0.00 | 0.00 | 58 | 1015.3 |
| 20260510072444 | 44 | 293 | 0.0 | 2.0 | 0.00 | 0.00 | 0.00 | 60 | 1015.3 |
| 20260510071717 | 44 | 293 | 0.0 | 2.0 | 0.00 | 0.00 | 0.00 | 58 | 1015.2 |
| 20260510071210 | 44 | 293 | 0.0 | 2.0 | 0.00 | 0.00 | 0.00 | 58 | 1015.2 |
| 20260510070705 | 44 | 293 | 0.0 | 4.0 | 0.00 | 0.00 | 0.00 | 56 | 1015.3 |
| 20260510070419 | 44 | 293 | 0.0 | 4.0 | 0.00 | 0.00 | 0.00 | 55 | 1015.3 |
| 20260510065652 | 44 | 308 | 0.0 | 2.0 | 0.00 | 0.00 | 0.00 | 58 | 1015.2 |
| 20260510065150 | 44 | 308 | 0.0 | 2.0 | 0.00 | 0.00 | 0.00 | 54 | 1015.1 |
| 20260510064647 | 44 | 308 | 0.0 | 2.0 | 0.00 | 0.00 | 0.00 | 57 | 1015.2 |
| 20260510064147 | 44 | 308 | 0.0 | 2.0 | 0.00 | 0.00 | 0.00 | 57 | 1015.1 |
| 20260510063647 | 44 | 311 | 1.0 | 2.0 | 0.00 | 0.00 | 0.00 | 57 | 1015.2 |
| 20260510063145 | 44 | 311 | 1.0 | 4.0 | 0.00 | 0.00 | 0.00 | 58 | 1015.1 |
| 20260510062644 | 44 | 306 | 1.0 | 4.0 | 0.00 | 0.00 | 0.00 | 55 | 1015.1 |
| 20260510062145 | 43 | 319 | 1.0 | 3.0 | 0.00 | 0.00 | 0.00 | 58 | 1015.0 |
| 20260510061642 | 43 | 309 | 0.0 | 2.0 | 0.00 | 0.00 | 0.00 | 59 | 1015.1 |
| 20260510061142 | 43 | 308 | 0.0 | 2.0 | 0.00 | 0.00 | 0.00 | 59 | 1014.8 |
| 20260510060642 | 43 | 302 | 0.0 | 2.0 | 0.00 | 0.00 | 0.00 | 62 | 1014.8 |
| 20260510060409 | 43 | 303 | 0.0 | 0.0 | 0.00 | 0.00 | 0.00 | 60 | 1014.8 |
| 20260510055643 | 43 | 303 | 0.0 | 1.0 | 0.00 | 0.00 | 0.00 | 61 | 1014.7 |
| 20260510055143 | 43 | 303 | 0.0 | 2.0 | 0.00 | 0.00 | 0.00 | 60 | 1014.5 |
| 20260510054910 | 44 | 303 | 0.0 | 3.0 | 0.00 | 0.00 | 0.00 | 58 | 1014.4 |
| 20260510054139 | 44 | 303 | 0.0 | 3.0 | 0.00 | 0.00 | 0.00 | 58 | 1014.4 |
| 20260510053638 | 44 | 303 | 0.0 | 2.0 | 0.00 | 0.00 | 0.00 | 57 | 1014.2 |
| 20260510053138 | 44 | 303 | 0.0 | 2.0 | 0.00 | 0.00 | 0.00 | 55 | 1014.3 |
| 20260510052638 | 44 | 303 | 0.0 | 2.0 | 0.00 | 0.00 | 0.00 | 55 | 1014.1 |
| 20260510052138 | 44 | 303 | 0.0 | 0.0 | 0.00 | 0.00 | 0.00 | 58 | 1014.0 |
| 20260510051638 | 44 | 303 | 0.0 | 0.0 | 0.00 | 0.00 | 0.00 | 54 | 1014.1 |
| 20260510051139 | 44 | 303 | 0.0 | 0.0 | 0.00 | 0.00 | 0.00 | 58 | 1014.0 |
| 20260510050638 | 44 | 303 | 0.0 | 0.0 | 0.00 | 0.00 | 0.00 | 58 | 1014.0 |
| 20260510050136 | 44 | 303 | 0.0 | 0.0 | 0.00 | 0.00 | 0.00 | 54 | 1013.9 |
| 20260510045852 | 44 | 303 | 0.0 | 0.0 | 0.00 | 0.00 | 0.00 | 53 | 1013.8 |
| 20260510045123 | 44 | 303 | 0.0 | 0.0 | 0.00 | 0.00 | 0.00 | 52 | 1013.8 |
| 20260510044617 | 44 | 303 | 0.0 | 0.0 | 0.00 | 0.00 | 0.00 | 55 | 1013.8 |
| 20260510044110 | 44 | 303 | 0.0 | 0.0 | 0.00 | 0.00 | 0.00 | 55 | 1013.7 |
| 20260510043604 | 45 | 303 | 0.0 | 0.0 | 0.00 | 0.00 | 0.00 | 52 | 1013.7 |
| 20260510043059 | 45 | 303 | 0.0 | 0.0 | 0.00 | 0.00 | 0.00 | 51 | 1013.6 |
| 20260510042553 | 45 | 303 | 0.0 | 0.0 | 0.00 | 0.00 | 0.00 | 52 | 1013.5 |
| 20260510042047 | 45 | 303 | 0.0 | 0.0 | 0.00 | 0.00 | 0.00 | 52 | 1013.6 |
| 20260510041540 | 45 | 303 | 0.0 | 0.0 | 0.00 | 0.00 | 0.00 | 53 | 1013.5 |
| 20260510041034 | 46 | 303 | 0.0 | 0.0 | 0.00 | 0.00 | 0.00 | 52 | 1013.4 |
| 20260510040529 | 46 | 303 | 0.0 | 1.0 | 0.00 | 0.00 | 0.00 | 52 | 1013.4 |
| 20260510040023 | 46 | 303 | 0.0 | 2.0 | 0.00 | 0.00 | 0.00 | 52 | 1013.4 |
| 20260510035517 | 46 | 303 | 0.0 | 2.0 | 0.00 | 0.00 | 0.00 | 50 | 1013.3 |
| 20260510035011 | 47 | 303 | 0.0 | 2.0 | 0.00 | 0.00 | 0.00 | 49 | 1013.3 |
| 20260510034504 | 47 | 303 | 0.0 | 2.0 | 0.00 | 0.00 | 0.00 | 49 | 1013.3 |
| 20260510034434 | 47 | 303 | 0.0 | 2.0 | 0.00 | 0.00 | 0.00 | 49 | 1013.2 |
| 20260510033452 | 47 | 303 | 0.0 | 2.0 | 0.00 | 0.00 | 0.00 | 49 | 1013.2 |
| 20260510032947 | 47 | 303 | 0.0 | 2.0 | 0.00 | 0.00 | 0.00 | 50 | 1013.2 |
| 20260510032440 | 47 | 303 | 0.0 | 2.0 | 0.00 | 0.00 | 0.00 | 48 | 1013.1 |
| 20260510031935 | 47 | 303 | 0.0 | 2.0 | 0.00 | 0.00 | 0.00 | 46 | 1013.1 |
| 20260510031428 | 48 | 302 | 0.0 | 2.0 | 0.00 | 0.00 | 0.00 | 51 | 1013.0 |
| 20260510030923 | 48 | 302 | 0.0 | 2.0 | 0.00 | 0.00 | 0.00 | 46 | 1012.9 |
| 20260510030416 | 49 | 302 | 0.0 | 2.0 | 0.00 | 0.00 | 0.00 | 44 | 1012.9 |
| 20260510025910 | 49 | 307 | 0.0 | 2.0 | 0.00 | 0.00 | 0.00 | 45 | 1012.8 |
| 20260510025405 | 50 | 307 | 0.0 | 1.0 | 0.00 | 0.00 | 0.00 | 44 | 1012.8 |
| 20260510024858 | 51 | 308 | 0.0 | 0.0 | 0.00 | 0.00 | 0.00 | 44 | 1012.7 |
| 20260510024618 | 52 | 308 | 0.0 | 0.0 | 0.00 | 0.00 | 0.00 | 36 | 1012.6 |
| 20260510024104 | 52 | 308 | 0.0 | 2.0 | 0.00 | 0.00 | 0.00 | 35 | 1012.5 |
| 20260510023346 | 52 | 307 | 1.0 | 4.0 | 0.00 | 0.00 | 0.00 | 34 | 1012.3 |
| 20260510023113 | 53 | 311 | 1.0 | 4.0 | 0.00 | 0.00 | 0.00 | 35 | 1012.2 |
| 20260510022347 | 52 | 19 | 1.0 | 5.0 | 0.00 | 0.00 | 0.00 | 35 | 1012.1 |
| 20260510021846 | 52 | 36 | 1.0 | 5.0 | 0.00 | 0.00 | 0.00 | 36 | 1012.1 |
| 20260510021346 | 53 | 265 | 1.0 | 5.0 | 0.00 | 0.00 | 0.00 | 35 | 1012.1 |
| 20260510021108 | 53 | 49 | 2.0 | 7.0 | 0.00 | 0.00 | 0.00 | 36 | 1011.9 |
| 20260510020347 | 52 | 315 | 2.0 | 7.0 | 0.00 | 0.00 | 0.00 | 37 | 1011.9 |
| 20260510015846 | 53 | 321 | 1.0 | 6.0 | 0.00 | 0.00 | 0.00 | 36 | 1011.8 |
| 20260510015346 | 53 | 302 | 2.0 | 9.0 | 0.00 | 0.00 | 0.00 | 36 | 1011.7 |
| 20260510014845 | 53 | 22 | 1.0 | 9.0 | 0.00 | 0.00 | 0.00 | 35 | 1011.6 |
| 20260510014342 | 53 | 303 | 1.0 | 4.0 | 0.00 | 0.00 | 0.00 | 35 | 1011.5 |
| 20260510013841 | 54 | 302 | 2.0 | 5.0 | 0.00 | 0.00 | 0.00 | 37 | 1011.3 |
| 20260510013341 | 54 | 295 | 2.0 | 6.0 | 0.00 | 0.00 | 0.00 | 33 | 1011.3 |
| 20260510012840 | 55 | 335 | 2.0 | 6.0 | 0.00 | 0.00 | 0.00 | 34 | 1011.3 |
| 20260510012826 | 55 | 288 | 3.0 | 11.0 | 0.00 | 0.00 | 0.00 | 31 | 1011.1 |
| 20260510012100 | 56 | 341 | 4.0 | 11.0 | 0.00 | 0.00 | 0.00 | 32 | 1011.0 |
| 20260510011336 | 56 | 281 | 5.0 | 12.0 | 0.00 | 0.00 | 0.00 | 30 | 1010.9 |
| 20260510011057 | 56 | 295 | 4.0 | 12.0 | 0.00 | 0.00 | 0.00 | 30 | 1010.8 |
| 20260510010336 | 56 | 294 | 4.0 | 11.0 | 0.00 | 0.00 | 0.00 | 30 | 1010.7 |
| 20260510005836 | 56 | 322 | 3.0 | 8.0 | 0.00 | 0.00 | 0.00 | 31 | 1010.6 |
| 20260510005336 | 57 | 286 | 3.0 | 9.0 | 0.00 | 0.00 | 0.00 | 32 | 1010.5 |
| 20260510004836 | 57 | 332 | 3.0 | 9.0 | 0.00 | 0.00 | 0.00 | 30 | 1010.4 |
| 20260510004336 | 57 | 296 | 3.0 | 8.0 | 0.00 | 0.00 | 0.00 | 31 | 1010.3 |
| 20260510003836 | 57 | 308 | 3.0 | 11.0 | 0.00 | 0.00 | 0.00 | 30 | 1010.1 |
| 20260510003332 | 58 | 306 | 3.0 | 11.0 | 0.00 | 0.00 | 0.00 | 29 | 1010.0 |
| 20260510002832 | 58 | 0 | 2.0 | 9.0 | 0.00 | 0.00 | 0.00 | 29 | 1010.0 |
| 20260510002332 | 58 | 329 | 2.0 | 7.0 | 0.00 | 0.00 | 0.00 | 29 | 1009.9 |
| 20260510002059 | 58 | 296 | 4.0 | 13.0 | 0.00 | 0.00 | 0.00 | 29 | 1009.9 |
| 20260510001334 | 58 | 0 | 4.0 | 13.0 | 0.00 | 0.00 | 0.00 | 28 | 1009.7 |
| 20260510000832 | 58 | 355 | 3.0 | 9.0 | 0.00 | 0.00 | 0.00 | 30 | 1009.7 |
| 20260510000333 | 58 | 310 | 3.0 | 11.0 | 0.00 | 0.00 | 0.00 | 30 | 1009.6 |
| 20260510000059 | 58 | 330 | 3.0 | 11.0 | 0.00 | 0.00 | 0.00 | 28 | 1009.6 |
| 20260509235557 | 59 | 320 | 4.0 | 16.0 | 0.00 | 0.00 | 0.00 | 29 | 1009.7 |
| 20260509234826 | 59 | 18 | 5.0 | 16.0 | 0.00 | 0.00 | 0.00 | 28 | 1009.5 |
| 20260509234319 | 59 | 316 | 5.0 | 16.0 | 0.00 | 0.00 | 0.00 | 27 | 1009.5 |
| 20260509233814 | 60 | 300 | 5.0 | 16.0 | 0.00 | 0.00 | 0.00 | 26 | 1009.4 |
| 20260509233307 | 60 | 310 | 4.0 | 12.0 | 0.00 | 0.00 | 0.00 | 27 | 1009.2 |
| 20260509232802 | 60 | 318 | 5.0 | 12.0 | 0.00 | 0.00 | 0.00 | 27 | 1009.2 |
| 20260509232255 | 60 | 325 | 5.0 | 14.0 | 0.00 | 0.00 | 0.00 | 30 | 1009.2 |
| 20260509231750 | 60 | 303 | 4.0 | 14.0 | 0.00 | 0.00 | 0.00 | 27 | 1009.1 |
| 20260509231243 | 60 | 298 | 6.0 | 15.0 | 0.00 | 0.00 | 0.00 | 26 | 1009.0 |
| 20260509230955 | 61 | 302 | 8.0 | 16.0 | 0.00 | 0.00 | 0.00 | 24 | 1008.9 |
| 20260509230232 | 61 | 297 | 8.0 | 19.0 | 0.00 | 0.00 | 0.00 | 25 | 1008.8 |
| 20260509225726 | 61 | 321 | 8.0 | 19.0 | 0.00 | 0.00 | 0.00 | 26 | 1008.8 |
| 20260509225441 | 61 | 271 | 8.0 | 16.0 | 0.00 | 0.00 | 0.00 | 25 | 1008.6 |
| 20260509225156 | 61 | 326 | 7.0 | 16.0 | 0.00 | 0.00 | 0.00 | 26 | 1008.5 |
| 20260509224432 | 61 | 307 | 7.0 | 16.0 | 0.00 | 0.00 | 0.00 | 26 | 1008.4 |
| 20260509223701 | 61 | 267 | 5.0 | 13.0 | 0.00 | 0.00 | 0.00 | 27 | 1008.3 |
| 20260509223156 | 62 | 309 | 4.0 | 11.0 | 0.00 | 0.00 | 0.00 | 28 | 1008.4 |
| 20260509222650 | 62 | 269 | 4.0 | 11.0 | 0.00 | 0.00 | 0.00 | 27 | 1008.3 |
| 20260509222143 | 62 | 0 | 4.0 | 13.0 | 0.00 | 0.00 | 0.00 | 28 | 1008.3 |
| 20260509221901 | 62 | 309 | 7.0 | 17.0 | 0.00 | 0.00 | 0.00 | 28 | 1008.4 |
| 20260509221351 | 62 | 301 | 6.0 | 17.0 | 0.00 | 0.00 | 0.00 | 26 | 1008.1 |
| 20260509220626 | 62 | 304 | 4.0 | 15.0 | 0.00 | 0.00 | 0.00 | 27 | 1008.1 |
| 20260509220119 | 62 | 304 | 4.0 | 17.0 | 0.00 | 0.00 | 0.00 | 29 | 1008.0 |
| 20260509215835 | 62 | 325 | 5.0 | 17.0 | 0.00 | 0.00 | 0.00 | 30 | 1007.9 |
| 20260509215107 | 62 | 98 | 5.0 | 17.0 | 0.00 | 0.00 | 0.00 | 29 | 1008.0 |
| 20260509214601 | 62 | 312 | 5.0 | 17.0 | 0.00 | 0.00 | 0.00 | 29 | 1008.0 |
| 20260509214542 | 62 | 5 | 5.0 | 11.0 | 0.00 | 0.00 | 0.00 | 28 | 1007.9 |
| 20260509213549 | 62 | 321 | 4.0 | 10.0 | 0.00 | 0.00 | 0.00 | 28 | 1007.8 |
| 20260509213521 | 62 | 59 | 5.0 | 13.0 | 0.00 | 0.00 | 0.00 | 28 | 1007.8 |
| 20260509212538 | 63 | 351 | 6.0 | 16.0 | 0.00 | 0.00 | 0.00 | 28 | 1007.9 |
| 20260509212255 | 63 | 242 | 6.0 | 16.0 | 0.00 | 0.00 | 0.00 | 28 | 1007.8 |
| 20260509211526 | 63 | 291 | 5.0 | 13.0 | 0.00 | 0.00 | 0.00 | 27 | 1007.6 |
| 20260509211238 | 63 | 24 | 5.0 | 15.0 | 0.00 | 0.00 | 0.00 | 29 | 1007.7 |
| 20260509210514 | 63 | 296 | 7.0 | 16.0 | 0.00 | 0.00 | 0.00 | 29 | 1007.6 |
| 20260509210014 | 64 | 281 | 6.0 | 15.0 | 0.00 | 0.00 | 0.00 | 29 | 1007.5 |
| 20260509205515 | 64 | 324 | 6.0 | 14.0 | 0.00 | 0.00 | 0.00 | 29 | 1007.3 |
| 20260509205014 | 64 | 0 | 6.0 | 14.0 | 0.00 | 0.00 | 0.00 | 33 | 1007.3 |
| 20260509204512 | 64 | 284 | 6.0 | 14.0 | 0.00 | 0.00 | 0.00 | 31 | 1007.2 |
| 20260509204010 | 64 | 294 | 6.0 | 14.0 | 0.00 | 0.00 | 0.00 | 29 | 1007.2 |
| 20260509203510 | 65 | 342 | 6.0 | 14.0 | 0.00 | 0.00 | 0.00 | 30 | 1007.3 |
| 20260509203011 | 66 | 304 | 6.0 | 14.0 | 0.00 | 0.00 | 0.00 | 28 | 1007.1 |
| 20260509202510 | 65 | 355 | 5.0 | 11.0 | 0.00 | 0.00 | 0.00 | 32 | 1007.1 |
| 20260509202233 | 64 | 298 | 5.0 | 12.0 | 0.00 | 0.00 | 0.00 | 33 | 1007.1 |
| 20260509201510 | 65 | 311 | 5.0 | 14.0 | 0.00 | 0.00 | 0.00 | 33 | 1007.2 |
| 20260509201010 | 65 | 244 | 4.0 | 14.0 | 0.00 | 0.00 | 0.00 | 32 | 1007.1 |
| 20260509200510 | 65 | 9 | 4.0 | 11.0 | 0.00 | 0.00 | 0.00 | 34 | 1006.9 |
| 20260509200010 | 64 | 300 | 4.0 | 11.0 | 0.00 | 0.00 | 0.00 | 34 | 1007.0 |
| 20260509195510 | 65 | 336 | 5.0 | 12.0 | 0.00 | 0.00 | 0.00 | 33 | 1006.8 |
| 20260509195011 | 65 | 298 | 5.0 | 12.0 | 0.00 | 0.00 | 0.00 | 32 | 1006.8 |
| 20260509194510 | 64 | 323 | 5.0 | 12.0 | 0.00 | 0.00 | 0.00 | 35 | 1006.8 |
| 20260509194010 | 67 | 300 | 7.0 | 17.0 | 0.00 | 0.00 | 0.00 | 32 | 1006.8 |
| 20260509193503 | 66 | 294 | 8.0 | 18.0 | 0.00 | 0.00 | 0.00 | 35 | 1006.8 |
| 20260509193220 | 65 | 348 | 10.0 | 20.0 | 0.00 | 0.00 | 0.00 | 34 | 1006.8 |
| 20260509192710 | 65 | 281 | 10.0 | 20.0 | 0.00 | 0.00 | 0.00 | 35 | 1006.7 |
| 20260509191946 | 65 | 317 | 7.0 | 16.0 | 0.00 | 0.00 | 0.00 | 34 | 1006.7 |
| 20260509191439 | 63 | 299 | 6.0 | 13.0 | 0.00 | 0.00 | 0.00 | 36 | 1006.7 |
| 20260509191154 | 65 | 308 | 7.0 | 13.0 | 0.00 | 0.00 | 0.00 | 34 | 1006.8 |
| 20260509190428 | 65 | 294 | 9.0 | 20.0 | 0.00 | 0.00 | 0.00 | 35 | 1006.6 |
| 20260509185921 | 62 | 301 | 9.0 | 20.0 | 0.00 | 0.00 | 0.00 | 36 | 1006.8 |
| 20260509185416 | 64 | 265 | 7.0 | 13.0 | 0.00 | 0.00 | 0.00 | 35 | 1006.7 |
| 20260509184911 | 64 | 310 | 8.0 | 16.0 | 0.00 | 0.00 | 0.00 | 35 | 1006.7 |
| 20260509184404 | 65 | 0 | 8.0 | 16.0 | 0.00 | 0.00 | 0.00 | 34 | 1006.6 |
| 20260509183857 | 65 | 298 | 7.0 | 15.0 | 0.00 | 0.00 | 0.00 | 34 | 1006.5 |
| 20260509183352 | 67 | 311 | 6.0 | 16.0 | 0.00 | 0.00 | 0.00 | 37 | 1006.5 |
| 20260509182846 | 66 | 286 | 6.0 | 16.0 | 0.00 | 0.00 | 0.00 | 38 | 1006.4 |
| 20260509182604 | 64 | 323 | 8.0 | 16.0 | 0.00 | 0.00 | 0.00 | 40 | 1006.4 |
| 20260509181833 | 63 | 282 | 6.0 | 16.0 | 0.00 | 0.00 | 0.00 | 37 | 1006.2 |
| 20260509181328 | 61 | 18 | 4.0 | 12.0 | 0.00 | 0.00 | 0.00 | 42 | 1006.3 |
| 20260509180821 | 61 | 328 | 4.0 | 12.0 | 0.00 | 0.00 | 0.00 | 41 | 1006.3 |
| 20260509180317 | 61 | 21 | 4.0 | 12.0 | 0.00 | 0.00 | 0.00 | 43 | 1006.2 |
| 20260509175810 | 62 | 336 | 5.0 | 13.0 | 0.00 | 0.00 | 0.00 | 41 | 1006.2 |
| 20260509175306 | 63 | 325 | 5.0 | 18.0 | 0.00 | 0.00 | 0.00 | 37 | 1006.1 |
| 20260509174757 | 61 | 329 | 4.0 | 18.0 | 0.00 | 0.00 | 0.00 | 43 | 1006.2 |
| 20260509174257 | 61 | 15 | 4.0 | 14.0 | 0.00 | 0.00 | 0.00 | 45 | 1006.1 |
| 20260509173759 | 62 | 276 | 7.0 | 15.0 | 0.00 | 0.00 | 0.00 | 46 | 1006.0 |
| 20260509173258 | 63 | 291 | 7.0 | 16.0 | 0.00 | 0.00 | 0.00 | 40 | 1006.0 |
| 20260509172755 | 63 | 308 | 5.0 | 16.0 | 0.00 | 0.00 | 0.00 | 44 | 1006.0 |
| 20260509172516 | 59 | 319 | 3.0 | 11.0 | 0.00 | 0.00 | 0.00 | 53 | 1006.0 |
| 20260509171755 | 59 | 288 | 4.0 | 10.0 | 0.00 | 0.00 | 0.00 | 51 | 1006.0 |
| 20260509171253 | 60 | 302 | 5.0 | 17.0 | 0.00 | 0.00 | 0.00 | 48 | 1006.0 |
| 20260509170753 | 61 | 281 | 5.0 | 17.0 | 0.00 | 0.00 | 0.00 | 49 | 1005.9 |
| 20260509170254 | 63 | 286 | 5.0 | 12.0 | 0.00 | 0.00 | 0.00 | 50 | 1006.1 |
| 20260509165754 | 62 | 355 | 4.0 | 12.0 | 0.00 | 0.00 | 0.00 | 53 | 1006.0 |
| 20260509165254 | 58 | 300 | 4.0 | 10.0 | 0.00 | 0.00 | 0.00 | 56 | 1006.0 |
| 20260509164752 | 58 | 342 | 4.0 | 14.0 | 0.00 | 0.00 | 0.00 | 52 | 1006.1 |
| 20260509164513 | 59 | 294 | 4.0 | 14.0 | 0.00 | 0.00 | 0.00 | 52 | 1006.0 |
| 20260509163752 | 60 | 0 | 4.0 | 13.0 | 0.00 | 0.00 | 0.00 | 53 | 1005.9 |
| 20260509163247 | 59 | 33 | 4.0 | 13.0 | 0.00 | 0.00 | 0.00 | 55 | 1005.9 |
| 20260509162748 | 58 | 241 | 4.0 | 13.0 | 0.00 | 0.00 | 0.00 | 55 | 1005.9 |
| 20260509162247 | 58 | 5 | 5.0 | 13.0 | 0.00 | 0.00 | 0.00 | 56 | 1005.9 |
| 20260509161747 | 59 | 329 | 5.0 | 15.0 | 0.00 | 0.00 | 0.00 | 53 | 1005.6 |
| 20260509161248 | 59 | 351 | 4.0 | 15.0 | 0.00 | 0.00 | 0.00 | 55 | 1005.6 |
| 20260509160748 | 59 | 333 | 4.0 | 11.0 | 0.00 | 0.00 | 0.00 | 54 | 1005.6 |
| 20260509160248 | 59 | 32 | 5.0 | 11.0 | 0.00 | 0.00 | 0.00 | 54 | 1005.4 |
| 20260509155748 | 58 | 343 | 5.0 | 11.0 | 0.00 | 0.00 | 0.00 | 54 | 1005.4 |
| 20260509155248 | 59 | 24 | 4.0 | 11.0 | 0.00 | 0.00 | 0.00 | 56 | 1005.3 |
| 20260509154747 | 58 | 339 | 5.0 | 14.0 | 0.00 | 0.00 | 0.00 | 57 | 1005.2 |
| 20260509154247 | 57 | 306 | 5.0 | 18.0 | 0.00 | 0.00 | 0.00 | 57 | 1005.2 |
| 20260509153748 | 58 | 330 | 4.0 | 18.0 | 0.00 | 0.00 | 0.00 | 57 | 1005.0 |
| 20260509153248 | 58 | 46 | 6.0 | 12.0 | 0.00 | 0.00 | 0.00 | 59 | 1005.1 |
| 20260509152747 | 58 | 307 | 7.0 | 13.0 | 0.00 | 0.00 | 0.00 | 58 | 1005.1 |